This demonstration page uses our WeatherBlox Daily Observations layout. Learn more.

Left ArrowRight Arrow

Hourly Observations for December 16, 2020

Temp ( °F °C ) Dew Point ( °F °C ) Humidity (%) Winds ( mph kmh ) Pressure ( in mb ) Visibility ( mi km ) Precip ( " mm )
12:15 am 00:15 Cloudy with Fog N/A N/A N/A Calm N/A N/A 0 0
12:35 am 00:35 Cloudy with Fog N/A N/A N/A Calm N/A 0.25 0.402335 0 0
12:55 am 00:55 Cloudy with Fog N/A N/A N/A Calm N/A 0.25 0.402335 0 0
1:15 am 01:15 Cloudy with Mist and Fog N/A N/A N/A Calm N/A 1.25 2.011675 0 0
1:35 am 01:35 Cloudy with Haze N/A N/A N/A Calm N/A 4 6.43736 0 0
1:55 am 01:55 Cloudy N/A N/A N/A Calm N/A 7 11.26538 0 0
2:15 am 02:15 Cloudy N/A N/A N/A SSW 3 6 N/A 7 11.26538 0 0
2:35 am 02:35 Cloudy N/A N/A N/A SSW 3 6 N/A 7 11.26538 0 0
2:55 am 02:55 Hazy N/A N/A N/A SSW 5 7 N/A 5 8.0467 0 0
3:15 am 03:15 Mostly Cloudy with Mist and Fog N/A N/A N/A SW 3 6 N/A 2 3.21868 0 0
3:35 am 03:35 Cloudy with Fog N/A N/A N/A Calm N/A 0.5 0.80467 0 0
3:55 am 03:55 Cloudy with Fog N/A N/A N/A SW 3 6 N/A 0.25 0.402335 0 0
4:15 am 04:15 Cloudy with Fog N/A N/A N/A Calm N/A 0.5 0.80467 0 0
4:35 am 04:35 Cloudy with Mist and Fog N/A N/A N/A Calm N/A 1.25 2.011675 0 0
4:55 am 04:55 Mostly Cloudy with Haze N/A N/A N/A Calm N/A 4 6.43736 0 0
5:15 am 05:15 Hazy N/A N/A N/A Calm N/A 4 6.43736 0 0
5:35 am 05:35 Clear with Mist and Fog N/A N/A N/A SW 5 7 N/A 3 4.82802 0 0
5:55 am 05:55 Clear N/A N/A N/A SW 3 6 N/A 7 11.26538 0 0
6:15 am 06:15 Clear N/A N/A N/A Calm N/A 10 16.0934 0 0
6:35 am 06:35 Clear N/A N/A N/A SW 5 7 N/A 10 16.0934 0 0
6:55 am 06:55 Clear N/A N/A N/A SW 5 7 N/A 10 16.0934 0 0
7:15 am 07:15 Clear N/A N/A N/A SW 3 6 N/A 7 11.26538 0 0
7:35 am 07:35 Clear N/A N/A N/A SW 6 9 N/A 10 16.0934 0 0
7:55 am 07:55 Sunny N/A N/A N/A SW 5 7 N/A 10 16.0934 0 0
8:15 am 08:15 Sunny N/A N/A N/A SW 5 7 N/A 10 16.0934 0 0
8:35 am 08:35 Sunny N/A N/A N/A WSW 3 6 N/A 10 16.0934 0 0
8:55 am 08:55 Sunny N/A N/A N/A Calm N/A 10 16.0934 0 0
9:15 am 09:15 Sunny N/A N/A N/A SW 5 7 N/A 10 16.0934 0 0
9:35 am 09:35 Sunny N/A N/A N/A WSW 3 6 N/A 10 16.0934 0 0
9:55 am 09:55 Sunny N/A N/A N/A WSW 6 9 N/A 10 16.0934 0 0
10:15 am 10:15 Sunny N/A N/A N/A W 6 9 N/A 10 16.0934 0 0
10:35 am 10:35 Sunny N/A N/A N/A Calm N/A 10 16.0934 0 0
10:55 am 10:55 Sunny N/A N/A N/A W 7 11 N/A 10 16.0934 0 0
11:15 am 11:15 Sunny N/A N/A N/A W 12 19 N/A 10 16.0934 0 0
11:35 am 11:35 Sunny 19 -7 18 -8 93 93 WSW 6 9 30.12 1020 10 16.0934 0 0
11:55 am 11:55 Sunny 20 -6.8 17 -8.3 89 89 W 8 13 30.11 1020 10 16.0934 0 0
12:15 pm 12:15 Sunny 21 -6.2 15 -9.4 78 78 WSW 6 9 30.1 1019 10 16.0934 0 0
12:35 pm 12:35 Sunny 22 -5.4 16 -9 76 76 WSW 5 7 30.08 1019 10 16.0934 0 0
12:55 pm 12:55 Partly Cloudy 24 -4.5 17 -8.6 73 73 W 8 13 30.06 1018 10 16.0934 0 0
1:15 pm 13:15 Sunny 24 -4.7 17 -8.6 74 74 W 7 11 30.07 1018 10 16.0934 0 0
1:35 pm 13:35 Sunny 24 -4.5 18 -8 77 77 W 7 11 30.07 1018 10 16.0934 0 0
1:55 pm 13:55 Sunny 25 -3.9 19 -7.4 77 77 W 8 13 30.05 1018 10 16.0934 0 0
2:15 pm 14:15 Sunny 26 -3.6 19 -7.3 76 76 W 7 11 30.05 1018 10 16.0934 0 0
2:35 pm 14:35 Sunny 27 -3 20 -6.7 76 76 W 6 9 30.05 1018 10 16.0934 0 0
2:55 pm 14:55 Sunny 29 -1.9 21 -6 74 74 W 6 9 30.04 1017 10 16.0934 0 0
3:15 pm 15:15 Sunny 30 -1.2 22 -5.6 72 72 W 5 7 30.04 1017 10 16.0934 0 0
3:35 pm 15:35 Sunny 30 -1.3 22 -5.3 75 75 W 5 7 30.04 1017 10 16.0934 0 0
3:55 pm 15:55 Sunny 31 -0.6 23 -5 72 72 W 5 7 30.03 1017 10 16.0934 0 0
4:15 pm 16:15 Sunny 31 -0.4 24 -4.6 74 74 Calm 30.04 1017 10 16.0934 0 0
4:35 pm 16:35 Sunny 31 -0.6 24 -4.7 74 74 W 3 6 30.04 1017 10 16.0934 0 0
4:55 pm 16:55 Sunny 28 -2.1 22 -5.5 78 78 W 3 6 30.07 1018 10 16.0934 0 0
5:15 pm 17:15 Clear 27 -2.6 22 -5.6 80 80 WSW 5 7 30.08 1019 10 16.0934 0 0
5:35 pm 17:35 Clear 28 -2.4 22 -5.4 80 80 WSW 3 6 30.08 1019 10 16.0934 0 0
5:55 pm 17:55 Clear 29 -1.8 23 -4.8 80 80 SW 3 6 30.07 1018 10 16.0934 0 0
6:15 pm 18:15 Clear 29 -1.6 24 -4.5 81 81 WSW 3 6 30.07 1018 10 16.0934 0 0
6:35 pm 18:35 Clear 30 -1.3 25 -4 82 82 WSW 3 6 30.07 1018 10 16.0934 0 0
6:55 pm 18:55 Clear 30 -1.2 25 -3.8 83 83 W 6 9 30.07 1018 10 16.0934 0 0
7:15 pm 19:15 Clear 29 -1.6 24 -4.2 83 83 WSW 8 13 30.07 1018 10 16.0934 0 0
7:35 pm 19:35 Clear 30 -0.9 26 -3.5 83 83 W 9 15 30.06 1018 10 16.0934 0 0
7:55 pm 19:55 Clear 32 0 26 -3.2 79 79 W 10 17 30.05 1018 10 16.0934 0 0
8:15 pm 20:15 Clear 32 -0.1 26 -3.6 78 78 W 10 17 30.07 1018 10 16.0934 0 0
8:35 pm 20:35 Clear 32 0 26 -3.5 78 78 W 10 17 30.06 1018 10 16.0934 0 0
8:55 pm 20:55 Clear 31 -0.5 24 -4.3 76 76 WNW 7 11 30.08 1019 10 16.0934 0 0
9:15 pm 21:15 Clear 29 -1.5 23 -4.9 78 78 WNW 6 9 30.09 1019 10 16.0934 0 0
9:35 pm 21:35 Clear 30 -1.1 24 -4.2 80 80 WNW 8 13 30.09 1019 10 16.0934 0 0
9:55 pm 21:55 Mostly Cloudy 32 -0.1 25 -4.1 75 75 WNW 7 11 30.09 1019 10 16.0934 0 0
10:15 pm 22:15 Cloudy 32 -0.1 26 -3.3 79 79 WNW 9 15 30.1 1019 10 16.0934 0 0
10:35 pm 22:35 Cloudy 35 1.7 28 -2.4 75 75 WNW 10 17 30.08 1019 10 16.0934 0 0
10:55 pm 22:55 Mostly Cloudy 35 1.5 28 -2.5 75 75 WNW 9 15 30.08 1019 10 16.0934 0 0
11:15 pm 23:15 Partly Cloudy 34 0.9 27 -2.9 76 76 WNW 9 15 30.1 1019 10 16.0934 0 0
11:35 pm 23:35 Clear 31 -0.6 25 -4 78 78 WNW 9 15 30.12 1020 10 16.0934 0 0
11:55 pm 23:55 Clear 32 -0.1 25 -4 75 75 WNW 9 15 30.12 1020 10 16.0934 0 0

Powered by AerisWeather